Weather History for KKLS - June, 2014

Change the Weather History Date:

Thursday, June 5, 2014

  Actual Average Record
Temperature  
Mean Temperature 58 °F -  
Max Temperature 71 °F 65 °F 91 °F (2003)
Min Temperature 44 °F 47 °F 42 °F (2008)
Degree Days  
Heating Degree Days 8    
Growing Degree Days 8 (Base 50)    
Moisture  
Dew Point 44 °F    
Average Humidity 63    
Maximum Humidity 82    
Minimum Humidity 41    
Precipitation  
Precipitation 0.00 in - - ()
Sea Level Pressure  
Sea Level Pressure 30.17 in    
Wind  
Wind Speed 3 mph (NW)    
Max Wind Speed 10 mph    
Max Gust Speed 18 mph    
Visibility 10 miles    
Events      
Averages and records for this station are not official NWS values.
T = Trace of Precipitation, MM = Missing Value Source: NWS Daily Summary

Daily Weather History Graph

Daily Weather History Graph

Search for Another Location

Airport or City:

Trip Planner

Search our weather history database for the weather conditions in past years. The results will help you decide how hot, cold, wet, or windy it might be!

Date:

Astronomy

Jun. 05, 2014 Rise Set
Actual Time 5:21 AM PDT 8:58 PM PDT
Civil Twilight 4:43 AM PDT 9:36 PM PDT
Nautical Twilight 3:53 AM PDT 10:27 PM PDT
Astronomical Twilight 2:45 AM PDT 11:36 PM PDT
Moon 1:02 PM PDT (6/5) 1:11 AM PDT (6/5)
Length of Visible Light 16h 52m
Length of Day
15h 36m
Waxing Crescent, 49% of the Moon is Illuminated
Jun 5
Waxing Crescent
Jun 5
First Quarter
Jun 12
Full
Jun 19
Last Quarter
Jun 27
New

Hourly Weather History & Observations

Time (PDT) Temp. Windchill Dew Point Humidity Pressure Visibility Wind Dir Wind Speed Gust Speed Precip Events Conditions
12:15 AM 51.8 °F - 42.8 °F 71% 30.19 in 10.0 mi North 3.5 mph - N/A   Clear
12:35 AM 51.8 °F - 42.8 °F 71% 30.19 in 10.0 mi Calm Calm - N/A   Clear
12:55 AM 51.8 °F - 42.8 °F 71% 30.19 in 10.0 mi NNE 3.5 mph - N/A   Clear
1:15 AM 50.0 °F - 42.8 °F 76% 30.19 in 10.0 mi Calm Calm - N/A   Clear
1:35 AM 50.0 °F - 42.8 °F 76% 30.19 in 10.0 mi Calm Calm - N/A   Clear
1:55 AM 50.0 °F - 42.8 °F 76% 30.19 in 10.0 mi Calm Calm - N/A   Clear
2:15 AM 48.2 °F - 42.8 °F 82% 30.19 in 10.0 mi NE 3.5 mph - N/A   Clear
2:35 AM 48.2 °F - 42.8 °F 82% 30.19 in 10.0 mi Calm Calm - N/A   Clear
2:55 AM 48.2 °F - 42.8 °F 82% 30.19 in 10.0 mi Calm Calm - N/A   Clear
3:15 AM 46.4 °F 45.2 °F 39.2 °F 76% 30.19 in 10.0 mi NW 3.5 mph - N/A   Clear
3:35 AM 46.4 °F 45.2 °F 41.0 °F 81% 30.20 in 10.0 mi North 3.5 mph - N/A   Clear
3:55 AM 46.4 °F - 41.0 °F 81% 30.20 in 10.0 mi Calm Calm - N/A   Clear
4:15 AM 44.6 °F 43.1 °F 39.2 °F 81% 30.20 in 10.0 mi WNW 3.5 mph - N/A   Clear
4:35 AM 44.6 °F - 39.2 °F 81% 30.20 in 10.0 mi Calm Calm - N/A   Clear
4:55 AM 44.6 °F - 39.2 °F 81% 30.20 in 10.0 mi Calm Calm - N/A   Clear
5:15 AM 44.6 °F - 39.2 °F 81% 30.20 in 10.0 mi Calm Calm - N/A   Mostly Cloudy
5:35 AM 44.6 °F 43.1 °F 39.2 °F 81% 30.20 in 10.0 mi NW 3.5 mph - N/A   Overcast
5:55 AM 44.6 °F - 39.2 °F 81% 30.21 in 10.0 mi Calm Calm - N/A   Overcast
6:15 AM 44.6 °F 42.2 °F 39.2 °F 81% 30.21 in 10.0 mi North 4.6 mph - N/A   Mostly Cloudy
6:35 AM 44.6 °F - 39.2 °F 81% 30.21 in 10.0 mi Calm Calm - N/A   Mostly Cloudy
6:55 AM 44.6 °F - 39.2 °F 81% 30.22 in 10.0 mi Calm Calm - N/A   Clear
7:15 AM 46.4 °F - 41.0 °F 81% 30.22 in 10.0 mi Calm Calm - N/A   Scattered Clouds
7:35 AM 48.2 °F - 42.8 °F 82% 30.22 in 10.0 mi North 3.5 mph - N/A   Scattered Clouds
7:55 AM 50.0 °F - 42.8 °F 76% 30.21 in 10.0 mi Calm Calm - N/A   Clear
8:15 AM 51.8 °F - 42.8 °F 71% 30.21 in 10.0 mi North 3.5 mph - N/A   Clear
8:35 AM 53.6 °F - 44.6 °F 72% 30.21 in 10.0 mi Calm Calm - N/A   Clear
8:55 AM 53.6 °F - 42.8 °F 67% 30.21 in 10.0 mi Calm Calm - N/A   Clear
9:15 AM 55.4 °F - 42.8 °F 63% 30.21 in 10.0 mi NW 4.6 mph - N/A   Partly Cloudy
9:35 AM 55.4 °F - 44.6 °F 67% 30.21 in 10.0 mi North 5.8 mph - N/A   Mostly Cloudy
9:55 AM 55.4 °F - 44.6 °F 67% 30.21 in 10.0 mi NNW 4.6 mph - N/A   Overcast
10:15 AM 57.2 °F - 44.6 °F 63% 30.20 in 10.0 mi NW 3.5 mph - N/A   Overcast
10:35 AM 57.2 °F - 44.6 °F 63% 30.20 in 10.0 mi Calm Calm - N/A   Scattered Clouds
10:55 AM 59.0 °F - 46.4 °F 63% 30.19 in 10.0 mi North 3.5 mph - N/A   Clear
11:15 AM 60.8 °F - 46.4 °F 59% 30.19 in 10.0 mi Calm Calm - N/A   Clear
11:35 AM 60.8 °F - 48.2 °F 63% 30.19 in 10.0 mi West 3.5 mph - N/A   Clear
11:55 AM 62.6 °F - 48.2 °F 59% 30.18 in 10.0 mi Calm Calm - N/A   Clear
12:15 PM 62.6 °F - 48.2 °F 59% 30.17 in 10.0 mi North 3.5 mph - N/A   Clear
12:35 PM 64.4 °F - 48.2 °F 56% 30.17 in 10.0 mi WNW 5.8 mph - N/A   Clear
12:55 PM 66.2 °F - 48.2 °F 52% 30.16 in 10.0 mi NNW 3.5 mph - N/A   Clear
1:15 PM 68.0 °F - 50.0 °F 52% 30.16 in 10.0 mi WNW 3.5 mph - N/A   Clear
1:35 PM 69.8 °F - 50.0 °F 49% 30.15 in 10.0 mi West 4.6 mph - N/A   Clear
1:55 PM 69.8 °F - 50.0 °F 49% 30.15 in 10.0 mi West 4.6 mph - N/A   Clear
2:15 PM 69.8 °F - 48.2 °F 46% 30.14 in 10.0 mi NNW 4.6 mph - N/A   Clear
2:35 PM 69.8 °F - 48.2 °F 46% 30.14 in 10.0 mi NW 5.8 mph - N/A   Clear
2:55 PM 71.6 °F - 51.8 °F 50% 30.13 in 10.0 mi West 6.9 mph - N/A   Clear
3:15 PM 71.6 °F - 50.0 °F 46% 30.13 in 10.0 mi West 4.6 mph - N/A   Clear
3:35 PM 71.6 °F - 50.0 °F 46% 30.12 in 10.0 mi West 6.9 mph - N/A   Clear
3:55 PM 71.6 °F - 50.0 °F 46% 30.12 in 10.0 mi WNW 6.9 mph - N/A   Clear
4:15 PM 71.6 °F - 50.0 °F 46% 30.11 in 10.0 mi WNW 10.4 mph - N/A   Clear
4:35 PM 71.6 °F - 48.2 °F 43% 30.11 in 10.0 mi WNW 6.9 mph - N/A   Clear
4:55 PM 71.6 °F - 48.2 °F 43% 30.11 in 10.0 mi WNW 8.1 mph - N/A   Clear
5:15 PM 71.6 °F - 46.4 °F 41% 30.10 in 10.0 mi West 10.4 mph - N/A   Clear
5:35 PM 69.8 °F - 46.4 °F 43% 30.10 in 10.0 mi WNW 9.2 mph - N/A   Clear
5:55 PM 69.8 °F - 46.4 °F 43% 30.10 in 10.0 mi WNW 8.1 mph 18.4 mph N/A   Clear
6:15 PM 69.8 °F - 46.4 °F 43% 30.09 in 10.0 mi West 5.8 mph - N/A   Clear
6:35 PM 68.0 °F - 44.6 °F 43% 30.10 in 10.0 mi WNW 6.9 mph - N/A   Clear
6:55 PM 66.2 °F - 44.6 °F 46% 30.10 in 10.0 mi Calm Calm - N/A   Clear
7:15 PM 66.2 °F - 44.6 °F 46% 30.11 in 10.0 mi NW 5.8 mph - N/A   Clear
7:35 PM 64.4 °F - 42.8 °F 45% 30.11 in 10.0 mi NW 3.5 mph - N/A   Clear
7:55 PM 62.6 °F - 42.8 °F 48% 30.12 in 10.0 mi WNW 9.2 mph - N/A   Clear
8:15 PM 62.6 °F - 42.8 °F 48% 30.12 in 10.0 mi NW 3.5 mph - N/A   Clear
8:35 PM 60.8 °F - 42.8 °F 52% 30.13 in 10.0 mi NW 6.9 mph - N/A   Clear
8:55 PM 60.8 °F - 42.8 °F 52% 30.13 in 10.0 mi NW 3.5 mph - N/A   Clear
9:15 PM 59.0 °F - 42.8 °F 55% 30.14 in 10.0 mi NW 5.8 mph - N/A   Clear
9:35 PM 57.2 °F - 42.8 °F 59% 30.14 in 10.0 mi WNW 4.6 mph - N/A   Clear
9:55 PM 57.2 °F - 42.8 °F 59% 30.14 in 10.0 mi NNW 3.5 mph - N/A   Clear
10:15 PM 55.4 °F - 42.8 °F 63% 30.14 in 10.0 mi NNW 3.5 mph - N/A   Clear
10:55 PM 55.4 °F - 44.6 °F 67% 30.15 in 10.0 mi NW 3.5 mph - N/A   Clear
11:15 PM 55.4 °F - 44.6 °F 67% 30.16 in 10.0 mi NW 3.5 mph - N/A   Clear
11:35 PM 53.6 °F - 44.6 °F 72% 30.15 in 10.0 mi North 3.5 mph - N/A   Clear
11:55 PM 51.8 °F - 42.8 °F 71% 30.15 in 10.0 mi Calm Calm - N/A   Clear